Weather Roundup
Issued by NWS Springfield, MO

Home | Current Version | Previous Version | Text Only | Print | Product List | Glossary On
Versions: 1 2 3 4 5 6 7 8 9 10 11 12 13 14 15 16 17 18 19 20 21 22 23 24 25 26 27 28 29 30 31 32 33 34 35 36 37 38 39 40 41 42 43 44 45 46 47 48 49 50
000
NZUS99 KSGF 270907
HRRSGF

HOURLY WEATHER
NATIONAL WEATHER SERVICE SPRINGFIELD MO
400 AM CDT TUE SEP 27 2016

......SGF CWA......

CITY           SKY/WX    TMP DP  RH WIND       PRES   REMARKS
SPRINGFIELD    CLEAR     49  44  83 S3        30.11F
JOPLIN         CLEAR     50  45  83 S3        30.12F
WEST PLAINS    CLEAR     50  42  74 W3        30.12F
ROLLA          CLEAR     50  45  83 SW8       30.07F
OSAGE BEACH    CLEAR     48  46  93 CALM      30.10F
BRANSON        CLEAR     50  46  87 SW3       30.13F

......SURROUNDING SGF CWA......

CITY           SKY/WX    TMP DP  RH WIND       PRES   REMARKS
CHANUTE        CLEAR     53  48  83 SW5       30.11F
PARSONS        CLEAR     47  46  97 CALM      30.14F
COFFEYVILLE    CLEAR     49  48  97 CALM      30.13F
EMPORIA        CLEAR     52  46  80 SW6       30.10F
GROVE OK       PTCLDY    48  48 100 CALM      30.14F
ROGERS AR      PTCLDY    49  45  86 CALM      30.14F
SILOAM SPRINGS CLOUDY    46  37  71 CALM      30.14F
HARRISON AR    CLOUDY    47  43  86 W5        30.13F
NEAR YELLVILLE PTCLDY    48  45  87 CALM      30.10F

......KANSAS AND MISSOURI......

CITY           SKY/WX    TMP DP  RH WIND       PRES   REMARKS
KANSAS CTY INT CLEAR     53  45  74 SW8       30.06F
DOWNTOWN KC    CLEAR     57  46  66 SW3       30.06F
COLUMBIA       CLEAR     56  44  64 W9        30.06F
SEDALIA        CLEAR     54  45  71 SW9       30.07F
ST JOSEPH      CLEAR     52  49  89 S6        30.06F
ST LOUIS       CLEAR     57  44  62 W5        30.05F
SPIRIT OF STL  CLEAR     51  48  89 CALM      30.04F
KIRKSVILLE     CLEAR     52  45  77 W6        30.02F
WICHITA        CLEAR     53  47  79 SW6       30.12F
TOPEKA         CLEAR     51  47  86 CALM      30.08F
OLATHE         CLEAR     54  46  74 SW6       30.08F

......TENNESSEE......

CITY           SKY/WX    TMP DP  RH WIND       PRES   REMARKS
MEMPHIS        MOCLDY    61  54  77 N7        30.06S
NASHVILLE      CLEAR     56  53  90 CALM      30.06F

......ARKANSAS.......

CITY           SKY/WX    TMP DP  RH WIND       PRES   REMARKS
FAYETTEVILLE   CLOUDY    46  46 100 CALM      30.15F
FT SMITH       MOCLDY    55  50  83 CALM      30.12F
LITTLE ROCK    CLOUDY    62  51  67 NW3       30.09S

......OKLAHOMA.......

CITY           SKY/WX    TMP DP  RH WIND       PRES   REMARKS
TULSA          MOCLDY    53  50  89 NW3       30.13F
PONCA CITY     CLEAR     50  47  89 CALM      30.13F
MCALESTER      CLOUDY    51  48  89 CALM      30.14F
OKLAHOMA CITY  CLOUDY    53  50  89 CALM      30.16F

......IOWA............

CITY           SKY/WX    TMP DP  RH WIND       PRES   REMARKS
DES MOINES     CLEAR     52  44  74 W3        29.99S
QUAD CITIES    CLEAR     50  43  77 W7        29.93F

......ILLINOIS........

CITY           SKY/WX    TMP DP  RH WIND       PRES   REMARKS
QUINCY         CLEAR     53  45  74 SW7       30.00F
CHICAGO        CLEAR     54  39  57 W13       29.85F




USA.gov is the U.S. government's official web portal to all federal, state and local government web resources and services.